| time (UTC) | temp F | wind direction | speed MPH | gust MPH | rain 1hr in | rain 24hr in | rain mn in | humidity % | barometer mb |
| 20260508120058 | 53 | 269 | 6.0 | 11.0 | 0.00 | 0.00 | 0.00 | 82 | 1025.9 |
| 20260508114655 | 53 | 262 | 5.0 | 10.0 | 0.00 | 0.00 | 0.00 | 81 | 1025.8 |
| 20260508113057 | 53 | 257 | 5.0 | 10.0 | 0.00 | 0.00 | 0.00 | 81 | 1025.7 |
| 20260508111602 | 54 | 272 | 5.0 | 11.0 | 0.00 | 0.00 | 0.00 | 80 | 1025.6 |
| 20260508110056 | 53 | 266 | 4.0 | 8.0 | 0.00 | 0.00 | 0.00 | 81 | 1025.7 |
| 20260508104552 | 53 | 276 | 4.0 | 8.0 | 0.00 | 0.00 | 0.00 | 81 | 1025.6 |
| 20260508103053 | 54 | 283 | 3.0 | 7.0 | 0.00 | 0.00 | 0.00 | 81 | 1025.5 |
| 20260508101553 | 54 | 277 | 3.0 | 6.0 | 0.00 | 0.00 | 0.00 | 81 | 1025.4 |
| 20260508100047 | 54 | 267 | 4.0 | 8.0 | 0.00 | 0.00 | 0.00 | 80 | 1025.2 |
| 20260508094548 | 55 | 269 | 1.0 | 5.0 | 0.00 | 0.00 | 0.00 | 79 | 1025.2 |
| 20260508093045 | 55 | 274 | 0.0 | 5.0 | 0.00 | 0.00 | 0.00 | 78 | 1025.0 |
| 20260508091549 | 55 | 268 | 1.0 | 4.0 | 0.00 | 0.00 | 0.00 | 77 | 1025.0 |
| 20260508090041 | 56 | 257 | 4.0 | 10.0 | 0.00 | 0.00 | 0.00 | 76 | 1024.7 |
| 20260508084539 | 56 | 267 | 2.0 | 9.0 | 0.00 | 0.00 | 0.00 | 76 | 1024.7 |
| 20260508083045 | 56 | 253 | 3.0 | 8.0 | 0.00 | 0.00 | 0.00 | 75 | 1024.4 |
| 20260508081536 | 56 | 239 | 2.0 | 6.0 | 0.00 | 0.00 | 0.00 | 74 | 1024.3 |
| 20260508080057 | 56 | 269 | 2.0 | 7.0 | 0.00 | 0.00 | 0.00 | 72 | 1024.2 |
| 20260508074535 | 57 | 253 | 2.0 | 7.0 | 0.00 | 0.00 | 0.00 | 70 | 1023.9 |
| 20260508073031 | 58 | 226 | 3.0 | 8.0 | 0.00 | 0.00 | 0.00 | 71 | 1023.7 |
| 20260508071529 | 58 | 259 | 5.0 | 12.0 | 0.00 | 0.00 | 0.00 | 69 | 1023.5 |
| 20260508070028 | 60 | 269 | 6.0 | 12.0 | 0.00 | 0.00 | 0.00 | 67 | 1023.3 |
| 20260508064540 | 60 | 259 | 4.0 | 10.0 | 0.00 | 0.00 | 0.00 | 66 | 1023.2 |
| 20260508063029 | 61 | 267 | 4.0 | 14.0 | 0.00 | 0.00 | 0.00 | 66 | 1023.2 |
| 20260508061531 | 60 | 252 | 6.0 | 15.0 | 0.00 | 0.00 | 0.00 | 65 | 1023.0 |
| 20260508060026 | 60 | 259 | 5.0 | 16.0 | 0.00 | 0.00 | 0.00 | 66 | 1023.0 |
| 20260508054539 | 60 | 255 | 6.0 | 17.0 | 0.00 | 0.00 | 0.00 | 66 | 1022.9 |
| 20260508053126 | 60 | 264 | 5.0 | 16.0 | 0.00 | 0.00 | 0.00 | 64 | 1022.8 |
| 20260508051532 | 60 | 270 | 6.0 | 15.0 | 0.00 | 0.00 | 0.00 | 66 | 1022.8 |
| 20260508050015 | 60 | 257 | 5.0 | 18.0 | 0.00 | 0.00 | 0.00 | 66 | 1022.8 |
| 20260508044515 | 60 | 260 | 10.0 | 17.0 | 0.00 | 0.01 | 0.00 | 66 | 1022.7 |
| 20260508043014 | 61 | 280 | 7.0 | 18.0 | 0.00 | 0.01 | 0.00 | 66 | 1022.7 |
| 20260508041514 | 61 | 244 | 3.0 | 17.0 | 0.00 | 0.01 | 0.00 | 66 | 1022.8 |
| 20260508040033 | 61 | 256 | 6.0 | 18.0 | 0.00 | 0.01 | 0.00 | 63 | 1022.6 |
| 20260508034511 | 61 | 243 | 7.0 | 20.0 | 0.00 | 0.01 | 0.00 | 64 | 1022.6 |
| 20260508033010 | 61 | 245 | 5.0 | 15.0 | 0.00 | 0.01 | 0.00 | 64 | 1022.6 |
| 20260508031514 | 61 | 256 | 8.0 | 17.0 | 0.00 | 0.01 | 0.00 | 62 | 1022.7 |
| 20260508030008 | 60 | 255 | 6.0 | 19.0 | 0.00 | 0.01 | 0.00 | 66 | 1022.8 |
| 20260508024518 | 60 | 264 | 6.0 | 15.0 | 0.00 | 0.01 | 0.00 | 65 | 1022.9 |
| 20260508023010 | 59 | 278 | 5.0 | 12.0 | 0.00 | 0.01 | 0.00 | 67 | 1023.1 |
| 20260508021507 | 60 | 150 | 7.0 | 14.0 | 0.00 | 0.01 | 0.00 | 67 | 1023.2 |
| 20260508020003 | 60 | 252 | 7.0 | 20.0 | 0.00 | 0.02 | 0.00 | 69 | 1023.3 |
| 20260508014559 | 61 | 248 | 9.0 | 16.0 | 0.00 | 0.02 | 0.00 | 64 | 1023.2 |
| 20260508013054 | 60 | 248 | 5.0 | 17.0 | 0.00 | 0.02 | 0.00 | 71 | 1023.2 |
| 20260508011550 | 58 | 283 | 6.0 | 13.0 | 0.00 | 0.02 | 0.00 | 73 | 1023.3 |
| 20260508010048 | 59 | 249 | 8.0 | 19.0 | 0.00 | 0.02 | 0.00 | 73 | 1023.3 |
| 20260508004549 | 58 | 253 | 10.0 | 20.0 | 0.00 | 0.02 | 0.00 | 77 | 1023.2 |
| 20260508003047 | 56 | 277 | 9.0 | 19.0 | 0.00 | 0.02 | 0.00 | 83 | 1023.2 |
| 20260508001541 | 56 | 248 | 6.0 | 17.0 | 0.00 | 0.02 | 0.00 | 81 | 1023.1 |
| 20260508000035 | 56 | 250 | 8.0 | 18.0 | 0.00 | 0.02 | 0.00 | 80 | 1022.8 |
| 20260507234545 | 56 | 263 | 8.0 | 20.0 | 0.00 | 0.02 | 0.00 | 80 | 1022.6 |
| 20260507233033 | 56 | 263 | 9.0 | 18.0 | 0.00 | 0.02 | 0.00 | 82 | 1022.8 |
| 20260507231528 | 56 | 267 | 7.0 | 17.0 | 0.00 | 0.02 | 0.00 | 83 | 1022.5 |
| 20260507230029 | 55 | 262 | 12.0 | 21.0 | 0.00 | 0.02 | 0.00 | 83 | 1022.4 |
| 20260507224525 | 54 | 269 | 7.0 | 17.0 | 0.00 | 0.02 | 0.00 | 86 | 1022.3 |
| 20260507223022 | 54 | 274 | 8.0 | 16.0 | 0.00 | 0.02 | 0.00 | 86 | 1022.5 |
| 20260507221529 | 53 | 259 | 7.0 | 14.0 | 0.00 | 0.02 | 0.00 | 88 | 1022.2 |
| 20260507220018 | 53 | 267 | 8.0 | 18.0 | 0.00 | 0.02 | 0.00 | 88 | 1022.0 |
| 20260507214516 | 52 | 249 | 8.0 | 14.0 | 0.00 | 0.02 | 0.00 | 88 | 1021.8 |
| 20260507213022 | 52 | 261 | 8.0 | 14.0 | 0.00 | 0.02 | 0.00 | 88 | 1021.6 |
| 20260507211516 | 53 | 278 | 6.0 | 13.0 | 0.00 | 0.02 | 0.00 | 88 | 1021.5 |
| 20260507210011 | 53 | 264 | 10.0 | 16.0 | 0.00 | 0.02 | 0.00 | 87 | 1021.3 |
| 20260507204509 | 53 | 266 | 9.0 | 18.0 | 0.00 | 0.02 | 0.00 | 87 | 1021.0 |
| 20260507203008 | 53 | 256 | 10.0 | 17.0 | 0.00 | 0.02 | 0.00 | 87 | 1021.0 |
| 20260507201507 | 53 | 264 | 9.0 | 19.0 | 0.00 | 0.02 | 0.00 | 87 | 1020.9 |
| 20260507200004 | 53 | 264 | 8.0 | 16.0 | 0.00 | 0.02 | 0.00 | 86 | 1020.8 |
| 20260507194507 | 53 | 273 | 9.0 | 18.0 | 0.00 | 0.02 | 0.00 | 86 | 1020.6 |
| 20260507193002 | 54 | 254 | 10.0 | 22.0 | 0.00 | 0.02 | 0.00 | 85 | 1020.4 |
| 20260507191604 | 54 | 233 | 10.0 | 18.0 | 0.00 | 0.02 | 0.00 | 85 | 1020.3 |
| 20260507190113 | 54 | 267 | 10.0 | 19.0 | 0.00 | 0.02 | 0.00 | 85 | 1020.1 |
| 20260507184600 | 54 | 256 | 8.0 | 21.0 | 0.00 | 0.07 | 0.00 | 85 | 1019.9 |
| 20260507183116 | 54 | 262 | 12.0 | 21.0 | 0.00 | 0.07 | 0.00 | 86 | 1019.6 |
| 20260507181601 | 53 | 243 | 11.0 | 21.0 | 0.00 | 0.07 | 0.00 | 87 | 1019.6 |
| 20260507180104 | 54 | 274 | 10.0 | 29.0 | 0.00 | 0.07 | 0.00 | 86 | 1019.5 |
| 20260507174604 | 53 | 287 | 12.0 | 22.0 | 0.00 | 0.07 | 0.00 | 87 | 1019.3 |
| 20260507173108 | 53 | 255 | 14.0 | 20.0 | 0.00 | 0.07 | 0.00 | 87 | 1019.2 |
| 20260507171554 | 54 | 257 | 15.0 | 28.0 | 0.00 | 0.07 | 0.00 | 86 | 1019.1 |
| 20260507170056 | 53 | 257 | 13.0 | 22.0 | 0.00 | 0.07 | 0.00 | 86 | 1019.0 |
| 20260507164622 | 53 | 283 | 13.0 | 25.0 | 0.00 | 0.07 | 0.00 | 86 | 1019.0 |
| 20260507163054 | 53 | 270 | 8.0 | 22.0 | 0.00 | 0.07 | 0.00 | 86 | 1019.0 |
| 20260507161553 | 53 | 263 | 12.0 | 25.0 | 0.00 | 0.07 | 0.00 | 86 | 1019.1 |
| 20260507160041 | 53 | 274 | 13.0 | 21.0 | 0.00 | 0.07 | 0.00 | 86 | 1019.3 |
| 20260507154539 | 53 | 272 | 12.0 | 21.0 | 0.00 | 0.08 | 0.00 | 86 | 1019.3 |
| 20260507153041 | 52 | 254 | 13.0 | 23.0 | 0.00 | 0.08 | 0.00 | 86 | 1019.6 |
| 20260507151537 | 52 | 260 | 11.0 | 23.0 | 0.00 | 0.08 | 0.00 | 86 | 1019.6 |
| 20260507150035 | 52 | 262 | 12.0 | 22.0 | 0.00 | 0.08 | 0.00 | 86 | 1019.8 |
| 20260507144535 | 52 | 269 | 9.0 | 20.0 | 0.00 | 0.09 | 0.00 | 87 | 1020.0 |
| 20260507143029 | 52 | 258 | 14.0 | 27.0 | 0.00 | 0.09 | 0.00 | 87 | 1019.7 |
| 20260507141525 | 52 | 249 | 15.0 | 31.0 | 0.00 | 0.09 | 0.00 | 86 | 1019.8 |
| 20260507140023 | 52 | 262 | 15.0 | 33.0 | 0.00 | 0.09 | 0.00 | 86 | 1019.7 |
| 20260507134520 | 51 | 274 | 14.0 | 31.0 | 0.00 | 0.09 | 0.00 | 86 | 1019.8 |
| 20260507133024 | 51 | 270 | 16.0 | 27.0 | 0.00 | 0.09 | 0.00 | 85 | 1020.0 |
| 20260507131518 | 51 | 275 | 11.0 | 26.0 | 0.00 | 0.09 | 0.00 | 85 | 1020.1 |
| 20260507130011 | 51 | 282 | 14.0 | 25.0 | 0.00 | 0.09 | 0.09 | 85 | 1020.7 |
| 20260507124513 | 51 | 272 | 15.0 | 24.0 | 0.00 | 0.09 | 0.09 | 85 | 1020.9 |
| 20260507123008 | 51 | 261 | 14.0 | 30.0 | 0.00 | 0.09 | 0.09 | 84 | 1020.8 |
| 20260507121511 | 51 | 250 | 14.0 | 26.0 | 0.00 | 0.09 | 0.09 | 83 | 1021.0 |